Location: Croydon
(51.3762°N, 0.0982°W)
Time: 11:14:36
(UTC+00:00)

deb Explorer IX - Visible Passes

Search period start: 20 November 2019 00:00
Search period end: 30 November 2019 00:00
Orbit: 546 x 1105 km, 38.8° (Epoch: 20 November)

Date Brightness Start Highest point End Pass type
(mag) Time Alt. Az. Time Alt. Az. Time Alt. Az.
20 Nov ? 03:46:01 11° SSE 03:46:01 11° SSE 03:46:17 10° SE visible
20 Nov ? 05:27:39 10° SW 05:28:12 10° SSW 05:28:45 10° SSW visible
21 Nov ? 05:06:43 10° SSW 05:06:43 10° SSW 05:07:19 10° SSW visible
